Location: Unspecified
(0.0000°N, 0.0000°E)
Time: 05:06:56
(UTC+00:00)

AAUSAT CUBESAT 2 - Pass Details

Date: 17 July 2020
Orbit: 574 x 589 km, 97.5° (Epoch: 13 August)

Event Time Altitude Azimuth Distance (km) Brightness Sun altitude
Rises 18:23:38 0° 194° (SSW) 2,784 ? -4.1°
Reaches altitude 10° 18:26:13 10° 210° (SSW) 1,885 ? -4.7°
Maximum altitude 18:29:16 20° 259° (WSW) 1,336 ? -5.4°
Drops below altitude 10° 18:32:19 10° 307° (NW) 1,883 ? -6.1°
Sets 18:34:54 0° 324° (NW) 2,781 ? -6.7°
